Location: Hendungen
(50.3954°N, 10.3515°E)
Time: 22:00:58
(UTC+00:00)

Daily predictions for brighter satellites

Satellite Brightness Start Highest point End
(mag) Time Altitude Azimuth Time Altitude Azimuth Time Altitude Azimuth
Cosmos 1864 Rocket 4.4 16:56:09 10° N 17:02:18 72° ENE 17:08:25 10° SSE
USA 267 3.4 16:55:47 10° ENE 17:02:22 86° NNW 17:08:55 10° WSW
Cosmos 1356 Rocket 3.8 16:58:52 10° N 17:02:31 36° ENE 17:06:10 10° SE
Cosmos 1607 4.5 16:57:10 10° S 17:02:47 39° ESE 17:08:27 10° NE
Cosmos 2297 Rocket 3.6 17:02:22 10° SE 17:05:50 17° E 17:09:19 10° ENE
USA 290 3.0 17:03:29 10° S 17:06:21 31° ESE 17:09:15 10° NE
Cosmos 1441 Rocket 3.1 17:03:07 10° SSW 17:06:28 75° WNW 17:09:49 10° N
In-Cosmos 22 Rocket 4.2 17:01:28 10° S 17:06:56 83° ESE 17:12:36 10° NNE
Cosmos 841 Rocket 4.3 17:02:50 10° SW 17:07:53 52° WNW 17:12:56 10° NNE
SAR-Lupe-5 4.2 17:06:51 10° NNE 17:09:24 57° ESE 17:11:50 10° S
Cosmos 1814 Rocket 4.3 17:04:22 10° S 17:09:25 47° ESE 17:14:26 10° NNE
ATLAS 3B R/B 4.4 17:02:34 10° NW 17:09:47 43° WSW 17:16:37 10° S
SAR-Lupe-4 3.6 17:06:22 10° SSE 17:09:53 60° ENE 17:13:26 10° N
Cosmos 1125 Rocket 4.0 17:07:42 10° NNW 17:12:34 39° ENE 17:17:25 10° SE
Cosmos 1455 Rocket 4.3 17:10:18 10° NNE 17:13:26 19° ENE 17:16:33 10° ESE
IRS-1C 4.5 17:08:21 10° S 17:13:39 74° WSW 17:19:00 10° NNW
Cosmos 2221 Rocket 4.4 17:16:01 10° SSE 17:19:50 28° E 17:23:42 10° NNE
YAOGAN 1 2.5 17:16:51 10° SSE 17:21:01 59° ENE 17:25:14 10° N
Cosmos 2123 Rocket 4.0 17:15:43 10° S 17:22:03 83° E 17:28:23 10° N
Okean 2 Rocket 3.3 17:18:05 10° N 17:22:22 47° ENE 17:26:35 10° SSE
Cosmos 1900 4.4 17:18:15 10° SW 17:23:21 90° SE 17:28:26 10° NE
NOSS 3-3 (C) 4.4 17:19:04 10° S 17:23:41 34° ESE 17:29:04 10° NE
NOAA 6 4.3 17:19:11 10° SE 17:24:04 46° ENE 17:29:00 10° N
Okean 1 Rocket 3.3 17:21:37 10° N 17:25:51 44° ENE 17:30:02 10° SSE
Spot 4 Rocket 4.1 17:21:17 10° SSE 17:26:17 58° ENE 17:31:18 10° N
COSMOS 2428 2.7 17:22:20 10° NNW 17:28:06 80° ENE 17:33:50 10° SSE
Cosmos 1980 4.0 17:26:19 10° NNW 17:31:47 45° NE 17:37:11 10° SE
Sich 1 Rocket 3.8 17:27:30 10° N 17:31:55 49° ENE 17:36:20 10° SSE
ARIANE 5 R/B 3.6 17:28:00 10° S 17:32:58 49° W 17:37:55 10° NNW
Cosmos 158 Rocket 3.7 17:32:33 10° SSW 17:37:23 72° ESE 17:42:15 10° NNE
Aureole 3 Rocket 3.2 17:33:10 10° N 17:37:23 39° ENE 17:40:39 10° SE
Cosmos 2237 Rocket 2.5 17:31:55 10° NNW 17:37:24 46° NE 17:42:52 10° SE
ATLAS 5 CENTAUR R/B 2.9 17:34:53 10° NW 17:38:58 44° SW 17:43:58 10° SSE
Cosmos 192 4.3 17:34:12 10° NNW 17:39:07 89° ENE 17:43:59 10° SSE
SeaSat 1 3.7 17:35:14 10° S 17:39:53 44° WSW 17:44:35 10° NW
Cosmos 1378 Rocket 3.5 17:36:13 10° S 17:40:32 85° WNW 17:44:51 10° N
Resurs 01 Rocket 1.8 17:37:10 10° SE 17:41:22 46° ENE 17:45:36 10° N
ARIANE 6 FM1 Upper Stage 4.3 17:39:40 10° NNW 17:42:30 18° NNE 17:44:13 14° NE
SKYMED 2 3.6 17:38:18 10° NNE 17:42:41 89° WNW 17:47:02 10° SSW
GP-B 3.7 17:40:07 10° S 17:44:25 61° W 17:48:46 10° N
Cosmos 2219 Rocket 4.3 17:42:02 10° NW 17:46:50 30° WSW 17:51:37 10° SSW
COSMO-SKYMED 1 2.4 17:42:54 10° NNE 17:47:00 61° ESE 17:51:03 10° S
Cosmos 2228 4.1 17:45:09 10° NNE 17:48:31 23° ENE 17:49:16 22° E
Cosmos 2292 Rocket 4.2 17:47:21 10° SW 17:50:03 36° WNW 17:52:55 10° N
PSLV R/B 3.3 17:47:05 10° SSE 17:51:12 77° ENE 17:55:19 10° NNW
Cosmos 2322 4.2 17:46:38 10° NW 17:52:17 65° WSW 17:57:55 10° SSE
NOSS 3-3 (A) 3.7 17:47:15 10° SSW 17:52:19 59° SE 17:57:36 14° NE
Cosmos 1447 Rocket 4.5 17:48:02 10° S 17:54:01 59° E 18:00:03 10° NNE
USA 306 2.0 17:51:45 10° WNW 17:54:30 48° SSW 17:55:03 36° SSE
Resurs 1-3 4.1 17:50:43 10° S 17:54:57 62° WSW 17:59:15 10° NNW
Cosmos 1025 Rocket 2.9 17:54:32 10° S 17:58:50 83° E 18:03:11 10° NNE
SJ-7 4.3 17:55:18 10° S 17:59:00 75° WSW 18:02:42 10° NNW
Cosmos 2285 Rocket 4.0 17:52:47 10° NNW 17:59:16 76° ENE 18:05:39 10° SSE
SL-16 R/B 3.2 17:55:56 10° NNW 18:00:41 27° NE 18:02:27 23° ENE
Cosmos 2227 Rocket 3.5 18:00:30 10° SSE 18:03:35 20° ESE 18:03:35 20° ESE
SJ-6B 2.4 18:05:12 13° SSE 18:08:09 56° ENE 18:11:33 10° N
NOSS 3-4 (A) 3.8 18:03:12 10° NW 18:09:40 65° NE 18:15:10 20° ESE
NOSS 3-4 (C) 3.8 18:03:27 10° NW 18:09:57 65° NE 18:15:23 20° ESE
SPOT 5 3.5 18:08:20 27° ESE 18:10:03 35° ENE 18:14:37 10° N
CZ-2D R/B 4.5 18:09:08 10° S 18:12:52 45° W 18:16:44 10° NNW
Cosmos 1674 Rocket 4.3 18:10:48 10° SSW 18:15:06 55° WNW 18:19:28 10° N
Cosmos 2034 Rocket 4.5 18:10:04 10° N 18:15:42 36° ENE 18:18:04 27° ESE
Cosmos 1513 Rocket 4.4 18:11:51 10° N 18:18:06 72° ENE 18:24:27 10° SSE
Cosmos 1867 4.3 18:18:10 10° WSW 18:23:29 52° NW 18:27:56 15° NNE
CZ-4 R/B 3.0 18:28:09 19° NNE 18:28:09 19° NNE 18:29:33 10° N
ATLAS 2AS CENTAUR R/B 4.0 18:20:26 10° WNW 18:26:25 30° NNW 18:31:16 14° NE
CZ-4B R/B 4.0 18:26:45 30° NE 18:26:45 30° NE 18:31:06 10° N
Lacrosse 5 rocket 1.8 18:24:10 10° W 18:27:33 43° NNW 18:28:21 36° NNE
CZ-4B DEB 4.5 18:29:56 37° ESE 18:31:18 45° ENE 18:36:29 10° N
Meteor 1-31 Rocket 3.8 18:32:59 28° N 18:32:59 28° N 18:34:50 10° N
ADEOS 4.3 18:32:00 32° NE 18:32:00 32° NE 18:36:11 10° N
CZ-4C R/B 2.0 18:28:34 10° SW 18:32:55 70° NW 18:36:09 24° NE
IRAS Rocket 4.4 18:29:12 10° SSE 18:34:48 76° WSW 18:40:28 10° NNW
CRYOSAT 2 4.4 18:32:22 10° N 18:37:17 81° W 18:42:10 10° S
USA 267 3.7 18:41:48 28° NE 18:45:07 53° N 18:51:26 10° W
Cosmos 1464 Rocket 3.9 18:39:28 10° N 18:45:54 80° E 18:52:13 10° SSE
CSL-04 Debris 4.1 18:44:38 36° SE 18:46:52 69° ENE 18:52:17 10° N
ERS-1 Rocket 3.9 18:48:48 31° NNE 18:48:48 31° NNE 18:51:59 10° N
Cosmos 2297 Rocket 2.1 18:43:23 10° SSW 18:49:03 90° SE 18:52:38 24° NNE
CSL-04 Rocket 3.4 18:47:26 34° SSE 18:49:48 77° ENE 18:55:06 10° NNW
Cosmos 1607 4.5 18:43:50 10° WSW 18:49:51 56° NW 18:54:10 20° NNE
Cosmos 1570 Rocket 3.9 18:44:43 10° SSW 18:50:00 83° ESE 18:52:48 29° NNE
Cosmos 2344 3.9 18:44:16 10° S 18:51:12 38° ESE 18:51:12 38° ESE
Cosmos 1455 Rocket 3.8 18:47:15 10° NNW 18:51:27 52° W 18:55:36 10° S
Cosmos 1943 4.4 18:47:27 10° NNW 18:51:36 26° NNE 18:51:36 26° NNE
Cosmos 1975 Rocket 4.2 18:48:20 10° S 18:50:38 31° S 18:50:38 31° S
DNEPR-1 R/B 3.8 18:48:43 10° NW 18:53:30 76° NE 18:54:12 65° ESE
PAYLOAD B 4.1 19:05:27 69° E 19:05:46 70° ENE 19:11:22 10° NNW
Cosmos 2208 Rocket 3.8 19:01:57 10° SSW 19:07:11 84° ESE 19:07:29 79° NE
Terra 3.4 19:11:53 24° N 19:11:53 24° N 19:13:50 10° N
NOSS 3-3 (C) 4.2 19:08:51 10° WSW 19:14:11 58° NW 19:16:44 34° NNE
Resurs 01 Rocket 4.0 19:14:30 10° SW 19:17:58 22° W 19:21:27 10° NW
Cosmos 2237 Rocket 3.5 19:16:12 10° NW 19:21:22 37° WSW 19:25:52 13° S
ARIANE 6 FM1 Upper Stage 4.5 19:18:28 10° NW 19:20:14 24° NNW 19:20:14 24° NNW
Cosmos 44 Rocket 4.3 19:18:24 10° SW 19:21:20 37° SSW 19:21:20 37° SSW
Gblst 52 Del rocket 4.5 19:15:55 10° W 19:23:20 81° N 19:24:03 72° ENE
Cosmos 773 Rocket 4.2 19:19:20 10° SSW 19:24:34 69° WNW 19:25:07 64° NNW
Cosmos 2228 4.2 19:21:44 10° NNW 19:25:36 40° W 19:25:36 40° W
SL-16 R/B 2.6 19:39:42 10° NNW 19:44:20 59° NW 19:44:20 59° NW
SPOT 5 4.2 19:47:23 35° WSW 19:47:57 36° W 19:52:36 10° NNW
Cosmos 2227 Rocket 3.3 19:42:22 10° SW 19:45:29 34° SW 19:45:29 34° SW
Okean O Rocket 4.5 20:02:07 10° NNW 20:02:07 10° NNW 20:02:08 10° NNW
CZ-4 R/B 4.4 20:03:09 11° NW 20:03:09 11° NW 20:03:17 10° NW
CZ-4B R/B 4.4 20:08:36 36° NW 20:08:36 36° NW 20:12:04 10° NNW
BREEZE-M DEB (TANK) 4.3 19:58:36 10° W 20:10:45 54° SW 20:10:45 54° SW
ATLAS 2AS CENTAUR R/B 4.1 20:13:32 10° NW 20:18:40 28° N 20:18:40 28° N
CZ-4C R/B 4.0 20:17:56 10° WNW 20:21:07 25° NW 20:21:07 25° NW
USA 267 4.0 20:29:08 45° NNW 20:29:08 45° NNW 20:33:57 10° WNW
Cosmos 2297 Rocket 4.2 20:29:23 10° W 20:33:52 23° NW 20:34:29 23° NNW
